CEB961 RPLL-RPMD

Flight info

Callsign CEB961
Flight time 1h 22m
Altitude 39000
Route IPATA2R IPATA B462 MASBA W9A BN W9 RIMAR RIMAR2R
Aircraft A339/H-SADE1E2E3GHIJ3J5M1P2RWXY/LB2D1

Departure

Time 2026-05-06 09:02
Airport Ninoy Aquino International Airport (RPLL)

Arrival

Time 2026-05-06 10:25
Airport Francisco Bangoy International Airport (RPMD)
Time Latitude Longitude Altitude Speed Heading
2026-05-06 08:16 14.52043 121.01135 93 ft 0 kts 46°
2026-05-06 08:43 14.52042 121.01132 93 ft 1 kts 46°
2026-05-06 08:43 14.52031 121.01122 93 ft 2 kts 46°
2026-05-06 08:44 14.52021 121.01110 92 ft 2 kts 46°
2026-05-06 08:44 14.52010 121.01099 93 ft 2 kts 50°
2026-05-06 08:44 14.52002 121.01086 93 ft 2 kts 66°
2026-05-06 08:44 14.51998 121.01072 93 ft 2 kts 79°
2026-05-06 08:45 14.51996 121.01057 93 ft 2 kts 92°
2026-05-06 08:45 14.51998 121.01041 92 ft 2 kts 106°
2026-05-06 08:45 14.52004 121.01027 92 ft 2 kts 119°
2026-05-06 08:45 14.52012 121.01014 93 ft 1 kts 133°
2026-05-06 08:46 14.52016 121.01009 93 ft 0 kts 136°
2026-05-06 08:48 14.52013 121.01012 92 ft 1 kts 135°
2026-05-06 08:48 14.52002 121.01025 92 ft 3 kts 135°
2026-05-06 08:49 14.51982 121.01045 92 ft 4 kts 135°
2026-05-06 08:49 14.51970 121.01057 92 ft 5 kts 135°
2026-05-06 08:49 14.51969 121.01059 92 ft 5 kts 135°
2026-05-06 08:49 14.51941 121.01062 92 ft 4 kts 200°
2026-05-06 08:50 14.51911 121.01041 92 ft 4 kts 209°
2026-05-06 08:50 14.51880 121.01047 92 ft 5 kts 144°
2026-05-06 08:50 14.51848 121.01078 92 ft 7 kts 135°
2026-05-06 08:50 14.51810 121.01118 92 ft 8 kts 134°
2026-05-06 08:51 14.51766 121.01163 92 ft 9 kts 135°
2026-05-06 08:51 14.51718 121.01213 92 ft 10 kts 135°
2026-05-06 08:51 14.51664 121.01269 92 ft 11 kts 135°
2026-05-06 08:51 14.51606 121.01328 92 ft 12 kts 135°
2026-05-06 08:52 14.51547 121.01391 92 ft 12 kts 135°
2026-05-06 08:52 14.51486 121.01453 92 ft 13 kts 135°
2026-05-06 08:52 14.51423 121.01520 92 ft 13 kts 135°
2026-05-06 08:52 14.51356 121.01588 92 ft 13 kts 134°
2026-05-06 08:53 14.51288 121.01659 92 ft 14 kts 135°
2026-05-06 08:53 14.51219 121.01730 92 ft 14 kts 135°
2026-05-06 08:53 14.51148 121.01804 92 ft 14 kts 135°
2026-05-06 08:53 14.51077 121.01877 92 ft 14 kts 135°
2026-05-06 08:54 14.51039 121.01915 92 ft 6 kts 142°
2026-05-06 08:54 14.51009 121.01911 92 ft 4 kts 209°
2026-05-06 08:54 14.50987 121.01885 92 ft 5 kts 234°
2026-05-06 08:54 14.50963 121.01846 92 ft 7 kts 239°
2026-05-06 08:55 14.50936 121.01798 92 ft 8 kts 240°
2026-05-06 08:55 14.50904 121.01740 92 ft 9 kts 240°
2026-05-06 08:55 14.50868 121.01675 92 ft 10 kts 240°
2026-05-06 08:55 14.50828 121.01606 92 ft 11 kts 239°
2026-05-06 08:56 14.50788 121.01532 92 ft 12 kts 240°
2026-05-06 08:56 14.50745 121.01454 92 ft 12 kts 239°
2026-05-06 08:56 14.50699 121.01373 92 ft 13 kts 240°
2026-05-06 08:56 14.50653 121.01290 92 ft 13 kts 240°
2026-05-06 08:57 14.50606 121.01205 92 ft 14 kts 240°
2026-05-06 08:57 14.50557 121.01117 92 ft 14 kts 240°
2026-05-06 08:57 14.50507 121.01028 92 ft 14 kts 241°
2026-05-06 08:57 14.50456 121.00938 92 ft 14 kts 239°
2026-05-06 08:58 14.50406 121.00846 92 ft 14 kts 239°
2026-05-06 08:58 14.50355 121.00754 92 ft 15 kts 240°
2026-05-06 08:58 14.50303 121.00659 92 ft 15 kts 240°
2026-05-06 08:58 14.50250 121.00565 92 ft 14 kts 240°
2026-05-06 08:59 14.50199 121.00472 92 ft 14 kts 240°
2026-05-06 08:59 14.50149 121.00382 92 ft 14 kts 240°
2026-05-06 08:59 14.50098 121.00291 92 ft 14 kts 239°
2026-05-06 08:59 14.50047 121.00201 92 ft 14 kts 240°
2026-05-06 09:00 14.49998 121.00111 92 ft 14 kts 240°
2026-05-06 09:00 14.49949 121.00022 92 ft 14 kts 240°
2026-05-06 09:00 14.49913 120.99971 92 ft 6 kts 208°
2026-05-06 09:00 14.49869 120.99972 92 ft 7 kts 158°
2026-05-06 09:01 14.49821 120.99998 92 ft 8 kts 149°
2026-05-06 09:01 14.49800 121.00034 92 ft 5 kts 75°
2026-05-06 09:01 14.49820 121.00074 92 ft 7 kts 61°
2026-05-06 09:01 14.49855 121.00140 92 ft 24 kts 61°
2026-05-06 09:02 14.50060 121.00510 93 ft 92 kts 60°
2026-05-06 09:02 14.50478 121.01257 93 ft 147 kts 64°
2026-05-06 09:02 14.51028 121.02268 364 ft 170 kts 64°
2026-05-06 09:02 14.51661 121.03346 829 ft 181 kts 65°
2026-05-06 09:03 14.52259 121.04451 1564 ft 175 kts 65°
2026-05-06 09:03 14.52851 121.05544 2115 ft 180 kts 65°
2026-05-06 09:03 14.53476 121.06691 2412 ft 190 kts 65°
2026-05-06 09:03 14.54149 121.07919 2656 ft 203 kts 65°
2026-05-06 09:04 14.54871 121.09222 2904 ft 216 kts 64°
2026-05-06 09:04 14.55643 121.10619 3165 ft 232 kts 65°
2026-05-06 09:04 14.56460 121.12094 3446 ft 246 kts 66°
2026-05-06 09:04 14.57141 121.13766 3730 ft 259 kts 78°
2026-05-06 09:05 14.57208 121.14010 3773 ft 260 kts 79°
2026-05-06 09:05 14.57366 121.14770 3900 ft 266 kts 84°
2026-05-06 09:05 14.57627 121.16711 4256 ft 279 kts 86°
2026-05-06 09:06 14.57846 121.18712 4938 ft 281 kts 87°
2026-05-06 09:06 14.58057 121.20702 5503 ft 286 kts 86°
2026-05-06 09:06 14.58285 121.22739 6129 ft 290 kts 86°
2026-05-06 09:06 14.58395 121.24839 6703 ft 293 kts 100°
2026-05-06 09:07 14.57712 121.26772 7232 ft 292 kts 128°
2026-05-06 09:07 14.56279 121.28220 7845 ft 290 kts 146°
2026-05-06 09:07 14.54663 121.29446 8464 ft 293 kts 147°
2026-05-06 09:07 14.53009 121.30673 9077 ft 297 kts 147°
2026-05-06 09:08 14.51328 121.31929 9643 ft 303 kts 147°
2026-05-06 09:08 14.49616 121.33218 10210 ft 309 kts 146°
2026-05-06 09:08 14.47860 121.34551 10567 ft 323 kts 146°
2026-05-06 09:08 14.46015 121.35957 10848 ft 339 kts 145°
2026-05-06 09:09 14.44079 121.37436 11128 ft 354 kts 145°
2026-05-06 09:09 14.42046 121.38991 11400 ft 370 kts 145°
2026-05-06 09:09 14.39943 121.40600 11667 ft 384 kts 144°
2026-05-06 09:09 14.37767 121.42265 11923 ft 399 kts 144°
2026-05-06 09:10 14.35522 121.43984 12316 ft 409 kts 144°
2026-05-06 09:10 14.33244 121.45729 12931 ft 412 kts 144°
2026-05-06 09:10 14.30959 121.47480 13588 ft 414 kts 144°
2026-05-06 09:10 14.28637 121.49258 14234 ft 416 kts 145°
2026-05-06 09:11 14.26305 121.51040 14874 ft 419 kts 145°
2026-05-06 09:11 14.24001 121.52801 15502 ft 421 kts 145°
2026-05-06 09:11 14.21630 121.54612 16144 ft 424 kts 145°
2026-05-06 09:11 14.19276 121.56409 16776 ft 426 kts 145°
2026-05-06 09:12 14.16896 121.58226 17408 ft 429 kts 145°
2026-05-06 09:12 14.14504 121.60051 18036 ft 431 kts 145°
2026-05-06 09:12 14.12110 121.61877 18656 ft 434 kts 145°
2026-05-06 09:12 14.10488 121.63115 19072 ft 435 kts 145°
2026-05-06 09:13 14.08057 121.64969 19686 ft 438 kts 145°
2026-05-06 09:13 14.05614 121.66831 20279 ft 440 kts 145°
2026-05-06 09:13 14.02360 121.69312 21042 ft 443 kts 145°
2026-05-06 09:13 13.99878 121.71203 21625 ft 446 kts 145°
2026-05-06 09:14 13.97408 121.73086 22186 ft 448 kts 145°
2026-05-06 09:14 13.94897 121.75000 22731 ft 450 kts 145°
2026-05-06 09:14 13.92375 121.76920 23254 ft 453 kts 145°
2026-05-06 09:14 13.89861 121.78851 23757 ft 456 kts 143°
2026-05-06 09:15 13.87422 121.80949 24250 ft 459 kts 140°
2026-05-06 09:15 13.85137 121.83221 24723 ft 462 kts 135°
2026-05-06 09:15 13.83001 121.85675 25184 ft 465 kts 132°
2026-05-06 09:15 13.80893 121.88243 25639 ft 468 kts 131°
2026-05-06 09:16 13.78817 121.90801 26069 ft 470 kts 131°
2026-05-06 09:16 13.76737 121.93367 26486 ft 472 kts 131°
2026-05-06 09:16 13.74621 121.95972 26894 ft 475 kts 131°
2026-05-06 09:16 13.72521 121.98551 27284 ft 477 kts 131°
2026-05-06 09:17 13.70382 122.01176 27668 ft 479 kts 131°
2026-05-06 09:17 13.68228 122.03815 28042 ft 481 kts 131°
2026-05-06 09:17 13.66092 122.06430 28399 ft 483 kts 131°
2026-05-06 09:17 13.63930 122.09074 28830 ft 483 kts 131°
2026-05-06 09:18 13.61780 122.11704 29356 ft 481 kts 131°
2026-05-06 09:18 13.59635 122.14327 29882 ft 479 kts 131°
2026-05-06 09:18 13.57524 122.16906 30367 ft 477 kts 130°
2026-05-06 09:18 13.55397 122.19504 30830 ft 476 kts 130°
2026-05-06 09:19 13.53272 122.22100 31284 ft 474 kts 130°
2026-05-06 09:19 13.51153 122.24687 31732 ft 473 kts 130°
2026-05-06 09:19 13.49044 122.27261 32168 ft 471 kts 130°
2026-05-06 09:19 13.46966 122.29796 32584 ft 470 kts 130°
2026-05-06 09:20 13.44875 122.32347 32993 ft 469 kts 130°
2026-05-06 09:20 13.42769 122.34914 33393 ft 468 kts 130°
2026-05-06 09:20 13.40675 122.37468 33785 ft 467 kts 130°
2026-05-06 09:20 13.38594 122.40004 34167 ft 466 kts 130°
2026-05-06 09:21 13.36504 122.42550 34539 ft 465 kts 130°
2026-05-06 09:21 13.34439 122.45067 34901 ft 464 kts 130°
2026-05-06 09:21 13.32361 122.47598 35263 ft 463 kts 130°
2026-05-06 09:21 13.30293 122.50115 35620 ft 462 kts 130°
2026-05-06 09:22 13.28232 122.52623 35960 ft 461 kts 130°
2026-05-06 09:22 13.26182 122.55117 36280 ft 460 kts 130°
2026-05-06 09:22 13.24808 122.56788 36485 ft 459 kts 130°
2026-05-06 09:22 13.22096 122.60086 36858 ft 459 kts 130°
2026-05-06 09:23 13.20036 122.62589 37117 ft 459 kts 130°
2026-05-06 09:23 13.17972 122.65097 37332 ft 460 kts 130°
2026-05-06 09:23 13.15928 122.67580 37522 ft 462 kts 130°
2026-05-06 09:23 13.13843 122.70112 37711 ft 463 kts 130°
2026-05-06 09:24 13.11767 122.72633 37903 ft 464 kts 130°
2026-05-06 09:24 13.09686 122.75160 38081 ft 465 kts 130°
2026-05-06 09:24 13.07629 122.77657 38231 ft 467 kts 130°
2026-05-06 09:24 13.05509 122.80229 38375 ft 469 kts 131°
2026-05-06 09:25 13.03407 122.82778 38508 ft 470 kts 131°
2026-05-06 09:25 13.01321 122.85307 38637 ft 472 kts 131°
2026-05-06 09:25 12.99199 122.87878 38762 ft 474 kts 131°
2026-05-06 09:25 12.97066 122.90462 38869 ft 476 kts 131°
2026-05-06 09:26 12.94928 122.93050 38875 ft 478 kts 131°
2026-05-06 09:26 12.90643 122.98238 38879 ft 479 kts 130°
2026-05-06 09:27 12.86386 123.03390 38880 ft 479 kts 130°
2026-05-06 09:27 12.82105 123.08567 38880 ft 479 kts 130°
2026-05-06 09:28 12.77800 123.13772 38880 ft 479 kts 130°
2026-05-06 09:28 12.73532 123.18928 38880 ft 479 kts 130°
2026-05-06 09:29 12.69252 123.24097 38880 ft 479 kts 130°
2026-05-06 09:29 12.64951 123.29287 38880 ft 479 kts 130°
2026-05-06 09:30 12.60659 123.34464 38880 ft 479 kts 130°
2026-05-06 09:30 12.56363 123.39644 38880 ft 479 kts 130°
2026-05-06 09:31 12.52065 123.44822 38880 ft 479 kts 130°
2026-05-06 09:31 12.47764 123.50002 38880 ft 479 kts 130°
2026-05-06 09:32 12.43465 123.55154 38880 ft 479 kts 132°
2026-05-06 09:32 12.38820 123.59972 38880 ft 478 kts 138°
2026-05-06 09:33 12.33661 123.64256 38880 ft 478 kts 144°
2026-05-06 09:33 12.28097 123.67911 38880 ft 478 kts 151°
2026-05-06 09:34 12.22295 123.71130 38880 ft 478 kts 152°
2026-05-06 09:34 12.16470 123.74327 38880 ft 478 kts 152°
2026-05-06 09:35 12.10643 123.77532 38880 ft 477 kts 152°
2026-05-06 09:35 12.04816 123.80741 38880 ft 478 kts 152°
2026-05-06 09:36 11.98995 123.83947 38880 ft 478 kts 152°
2026-05-06 09:36 11.93158 123.87161 38879 ft 478 kts 152°
2026-05-06 09:37 11.87435 123.90310 38875 ft 478 kts 152°
2026-05-06 09:37 11.81611 123.93514 38869 ft 477 kts 152°
2026-05-06 09:38 11.75781 123.96719 38858 ft 477 kts 152°
2026-05-06 09:38 11.69929 123.99935 38845 ft 477 kts 152°
2026-05-06 09:39 11.64140 124.03115 38834 ft 477 kts 152°
2026-05-06 09:39 11.58309 124.06316 38829 ft 477 kts 152°
2026-05-06 09:40 11.52472 124.09520 38827 ft 477 kts 152°
2026-05-06 09:40 11.43735 124.14312 38827 ft 477 kts 152°
2026-05-06 09:41 11.37922 124.17499 38827 ft 477 kts 152°
2026-05-06 09:41 11.32066 124.20708 38827 ft 477 kts 152°
2026-05-06 09:42 11.26250 124.23893 38827 ft 478 kts 152°
2026-05-06 09:42 11.20406 124.27093 38827 ft 477 kts 152°
2026-05-06 09:43 11.14580 124.30283 38827 ft 478 kts 152°
2026-05-06 09:43 11.08781 124.33455 38827 ft 477 kts 152°
2026-05-06 09:44 11.02935 124.36625 38827 ft 478 kts 152°
2026-05-06 09:44 10.97109 124.39760 38827 ft 477 kts 152°
2026-05-06 09:45 10.91258 124.42910 38827 ft 477 kts 152°
2026-05-06 09:45 10.85399 124.46069 38826 ft 477 kts 152°
2026-05-06 09:46 10.79561 124.49215 38827 ft 477 kts 152°
2026-05-06 09:46 10.73735 124.52361 38827 ft 478 kts 152°
2026-05-06 09:47 10.67865 124.55547 38827 ft 478 kts 152°
2026-05-06 09:47 10.62030 124.58714 38827 ft 478 kts 152°
2026-05-06 09:48 10.56218 124.61867 38827 ft 478 kts 152°
2026-05-06 09:48 10.50354 124.65048 38827 ft 477 kts 152°
2026-05-06 09:49 10.44553 124.68192 38827 ft 477 kts 152°
2026-05-06 09:49 10.38734 124.71345 38826 ft 478 kts 152°
2026-05-06 09:50 10.32890 124.74509 38826 ft 478 kts 152°
2026-05-06 09:50 10.27039 124.77678 38827 ft 478 kts 152°
2026-05-06 09:51 10.21212 124.80832 38827 ft 478 kts 152°
2026-05-06 09:51 10.15352 124.84003 38827 ft 477 kts 152°
2026-05-06 09:52 10.09539 124.87146 38827 ft 476 kts 152°
2026-05-06 09:52 10.03714 124.90295 38827 ft 475 kts 152°
2026-05-06 09:53 9.77919 125.04231 38827 ft 474 kts 153°
2026-05-06 09:53 9.57907 125.14982 38828 ft 472 kts 153°
2026-05-06 09:54 9.52125 125.18060 38827 ft 472 kts 153°
2026-05-06 09:54 9.46352 125.21137 38839 ft 472 kts 153°
2026-05-06 09:55 9.40553 125.24227 38742 ft 472 kts 153°
2026-05-06 09:55 9.37685 125.25755 38495 ft 471 kts 153°
2026-05-06 09:55 9.34801 125.27293 38225 ft 468 kts 153°
2026-05-06 09:56 9.31941 125.28816 37904 ft 465 kts 153°
2026-05-06 09:56 9.29112 125.30323 37444 ft 464 kts 153°
2026-05-06 09:56 9.26255 125.31845 36915 ft 464 kts 153°
2026-05-06 09:56 9.23399 125.33366 36354 ft 465 kts 153°
2026-05-06 09:57 9.20571 125.34871 35756 ft 465 kts 153°
2026-05-06 09:57 9.17718 125.36390 35159 ft 465 kts 153°
2026-05-06 09:57 9.14848 125.37918 34558 ft 465 kts 153°
2026-05-06 09:57 9.12016 125.39426 33957 ft 465 kts 153°
2026-05-06 09:58 9.09177 125.40937 33347 ft 465 kts 153°
2026-05-06 09:58 9.06301 125.42467 32729 ft 466 kts 152°
2026-05-06 09:58 9.03450 125.43982 32087 ft 466 kts 152°
2026-05-06 09:58 9.00585 125.45433 31438 ft 467 kts 155°
2026-05-06 09:59 8.97610 125.46685 30761 ft 468 kts 159°
2026-05-06 09:59 8.94504 125.47725 30053 ft 470 kts 163°
2026-05-06 09:59 8.91379 125.48512 29360 ft 471 kts 168°
2026-05-06 09:59 8.88166 125.49066 28667 ft 471 kts 172°
2026-05-06 10:00 8.84910 125.49434 27981 ft 471 kts 174°
2026-05-06 10:00 8.81673 125.49761 27510 ft 469 kts 174°
2026-05-06 10:00 8.79737 125.49952 27273 ft 469 kts 174°
2026-05-06 10:00 8.77009 125.50221 26844 ft 467 kts 174°
2026-05-06 10:01 8.73834 125.50538 26356 ft 463 kts 174°
2026-05-06 10:01 8.70657 125.50857 25858 ft 459 kts 174°
2026-05-06 10:01 8.67492 125.51179 25333 ft 455 kts 174°
2026-05-06 10:01 8.64366 125.51496 24846 ft 450 kts 174°
2026-05-06 10:02 8.61275 125.51812 24318 ft 447 kts 174°
2026-05-06 10:02 8.58235 125.52122 23850 ft 443 kts 174°
2026-05-06 10:02 8.55217 125.52429 23403 ft 438 kts 175°
2026-05-06 10:02 8.52209 125.52734 22967 ft 433 kts 175°
2026-05-06 10:03 8.49213 125.53011 22531 ft 428 kts 175°
2026-05-06 10:03 8.46288 125.53268 22100 ft 424 kts 175°
2026-05-06 10:03 8.43359 125.53526 21666 ft 420 kts 176°
2026-05-06 10:03 8.40474 125.53782 21234 ft 417 kts 176°
2026-05-06 10:04 8.37610 125.54037 20803 ft 413 kts 176°
2026-05-06 10:04 8.34779 125.54290 20373 ft 410 kts 176°
2026-05-06 10:04 8.31935 125.54545 19938 ft 407 kts 176°
2026-05-06 10:04 8.29139 125.54795 19505 ft 404 kts 176°
2026-05-06 10:05 8.26369 125.55044 19076 ft 402 kts 176°
2026-05-06 10:05 8.23595 125.55293 18643 ft 399 kts 176°
2026-05-06 10:05 8.20849 125.55540 18211 ft 397 kts 176°
2026-05-06 10:05 8.18120 125.55785 17774 ft 395 kts 176°
2026-05-06 10:06 8.15392 125.56030 17334 ft 393 kts 176°
2026-05-06 10:06 8.12703 125.56272 16901 ft 391 kts 176°
2026-05-06 10:06 8.10017 125.56513 16464 ft 389 kts 176°
2026-05-06 10:06 8.07324 125.56756 16025 ft 388 kts 176°
2026-05-06 10:07 8.04651 125.56995 15586 ft 386 kts 176°
2026-05-06 10:07 8.02019 125.57231 15151 ft 385 kts 176°
2026-05-06 10:07 7.99333 125.57429 14705 ft 382 kts 180°
2026-05-06 10:07 7.96724 125.57328 14269 ft 379 kts 188°
2026-05-06 10:08 7.94148 125.56889 13829 ft 376 kts 195°
2026-05-06 10:08 7.91629 125.56200 13390 ft 374 kts 198°
2026-05-06 10:08 7.89142 125.55462 12985 ft 372 kts 198°
2026-05-06 10:08 7.86705 125.54732 12590 ft 370 kts 198°
2026-05-06 10:09 7.84245 125.53998 12164 ft 368 kts 198°
2026-05-06 10:09 7.81782 125.53268 11725 ft 367 kts 198°
2026-05-06 10:09 7.79344 125.52548 11282 ft 367 kts 198°
2026-05-06 10:09 7.76919 125.51834 10838 ft 366 kts 198°
2026-05-06 10:10 7.74486 125.51120 10580 ft 359 kts 198°
2026-05-06 10:10 7.72148 125.50436 10474 ft 347 kts 198°
2026-05-06 10:10 7.69882 125.49773 10372 ft 336 kts 198°
2026-05-06 10:10 7.67671 125.49125 10281 ft 326 kts 198°
2026-05-06 10:11 7.65520 125.48495 10202 ft 315 kts 198°
2026-05-06 10:11 7.63475 125.47895 10138 ft 305 kts 198°
2026-05-06 10:11 7.61468 125.47307 10085 ft 295 kts 198°
2026-05-06 10:11 7.59534 125.46740 10040 ft 285 kts 198°
2026-05-06 10:12 7.57646 125.46186 9857 ft 284 kts 198°
2026-05-06 10:12 7.55740 125.45626 9552 ft 285 kts 198°
2026-05-06 10:12 7.53854 125.45073 9268 ft 284 kts 198°
2026-05-06 10:12 7.51958 125.44517 8988 ft 284 kts 198°
2026-05-06 10:13 7.50074 125.43965 8686 ft 284 kts 198°
2026-05-06 10:13 7.48183 125.43411 8403 ft 284 kts 198°
2026-05-06 10:13 7.46304 125.42862 8135 ft 283 kts 198°
2026-05-06 10:13 7.44414 125.42309 7870 ft 282 kts 198°
2026-05-06 10:14 7.42547 125.41763 7610 ft 281 kts 198°
2026-05-06 10:14 7.40682 125.41219 7361 ft 277 kts 198°
2026-05-06 10:14 7.38861 125.40688 7158 ft 272 kts 198°
2026-05-06 10:14 7.37059 125.40160 6976 ft 268 kts 198°
2026-05-06 10:15 7.35271 125.39669 6751 ft 267 kts 192°
2026-05-06 10:15 7.33415 125.39547 6505 ft 268 kts 178°
2026-05-06 10:15 7.31587 125.39828 6262 ft 268 kts 171°
2026-05-06 10:15 7.29767 125.40220 6011 ft 268 kts 169°
2026-05-06 10:16 7.27959 125.40624 5759 ft 267 kts 169°
2026-05-06 10:16 7.26154 125.41021 5546 ft 265 kts 169°
2026-05-06 10:16 7.24381 125.41405 5512 ft 255 kts 170°
2026-05-06 10:16 7.22676 125.41771 5507 ft 245 kts 170°
2026-05-06 10:17 7.21054 125.42117 5501 ft 233 kts 170°
2026-05-06 10:17 7.19502 125.42446 5366 ft 228 kts 170°
2026-05-06 10:17 7.17962 125.42770 5211 ft 223 kts 170°
2026-05-06 10:17 7.16473 125.43085 5054 ft 219 kts 170°
2026-05-06 10:18 7.15014 125.43392 4922 ft 212 kts 170°
2026-05-06 10:18 7.13584 125.43694 4775 ft 204 kts 171°
2026-05-06 10:18 7.12239 125.43977 4633 ft 195 kts 171°
2026-05-06 10:18 7.10934 125.44253 4493 ft 187 kts 171°
2026-05-06 10:19 7.09715 125.44511 4362 ft 175 kts 171°
2026-05-06 10:19 7.08560 125.44755 4228 ft 163 kts 171°
2026-05-06 10:19 7.07491 125.45081 4104 ft 162 kts 151°
2026-05-06 10:19 7.06720 125.45903 3945 ft 168 kts 117°
2026-05-06 10:20 7.06380 125.47025 3723 ft 169 kts 104°
2026-05-06 10:20 7.06152 125.48183 3489 ft 164 kts 102°
2026-05-06 10:20 7.05951 125.49282 3276 ft 158 kts 103°
2026-05-06 10:20 7.05742 125.50378 3116 ft 158 kts 103°
2026-05-06 10:21 7.05528 125.51458 2947 ft 158 kts 103°
2026-05-06 10:21 7.05306 125.52550 2753 ft 158 kts 104°
2026-05-06 10:21 7.05086 125.53616 2553 ft 157 kts 104°
2026-05-06 10:21 7.04865 125.54697 2346 ft 156 kts 100°
2026-05-06 10:22 7.05020 125.55763 2126 ft 158 kts 59°
2026-05-06 10:22 7.05671 125.56651 1937 ft 158 kts 50°
2026-05-06 10:22 7.06393 125.57481 1727 ft 157 kts 48°
2026-05-06 10:22 7.07119 125.58302 1517 ft 157 kts 48°
2026-05-06 10:23 7.07827 125.59117 1312 ft 156 kts 49°
2026-05-06 10:23 7.08542 125.59953 1103 ft 156 kts 49°
2026-05-06 10:23 7.09235 125.60769 901 ft 155 kts 49°
2026-05-06 10:23 7.09952 125.61579 697 ft 154 kts 48°
2026-05-06 10:24 7.10673 125.62389 485 ft 154 kts 48°
2026-05-06 10:24 7.11374 125.63187 218 ft 153 kts 50°
2026-05-06 10:24 7.12038 125.63980 113 ft 133 kts 48°
2026-05-06 10:24 7.12525 125.64545 113 ft 81 kts 49°
2026-05-06 10:25 7.12779 125.64841 113 ft 29 kts 49°
2026-05-06 10:25 7.12835 125.64906 112 ft 8 kts 47°
2026-05-06 10:25 7.12877 125.64922 112 ft 6 kts 342°
2026-05-06 10:25 7.12920 125.64893 112 ft 8 kts 322°
2026-05-06 10:26 7.12968 125.64854 113 ft 9 kts 320°
2026-05-06 10:26 7.13017 125.64807 112 ft 8 kts 299°
2026-05-06 10:26 7.13004 125.64759 112 ft 8 kts 230°
2026-05-06 10:26 7.12990 125.64743 113 ft 8 kts 229°
2026-05-06 10:37 7.12974 125.64725 112 ft 5 kts 229°
2026-05-06 10:37 7.12945 125.64691 112 ft 7 kts 229°
2026-05-06 10:38 7.12940 125.64657 112 ft 4 kts 301°
2026-05-06 10:38 7.12969 125.64628 112 ft 6 kts 319°
2026-05-06 10:38 7.12982 125.64616 112 ft 2 kts 319°
2026-05-06 10:38 7.12989 125.64610 112 ft 0 kts 319°